Location: Observatory
(52.1446°N, 0.4624°W)
Time: 10:20:29
(UTC+01:00)

ISS - Pass Details

Date: 08 July 2020
Orbit: 417 x 420 km, 51.6° (Epoch: 02 July)

Event Time Altitude Azimuth Distance (km) Brightness Sun altitude
Exits shadow 02:23:12 26° 214° (SW) 863 -2.7 -13.6°
Maximum altitude 02:24:41 44° 158° (SSE) 589 -3.4 -13.5°
Drops below altitude 10° 02:27:54 10° 84° (E) 1,498 -0.6 -13.4°
Sets 02:30:03 0° 78° (ENE) 2,363 0.5 -13.2°
